Location: Bergfeld
(52.0500°N, 11.7833°E)
Time: 09:05:33
(UTC+00:00)

Cosmos 1725 Rocket - Pass Details

Date: 17 February 2020
Orbit: 963 x 990 km, 82.9° (Epoch: 03 April)

Event Time Altitude Azimuth Distance (km) Brightness Sun altitude
Rises 05:16:55 0° 348° (NNW) 3,680 6.8 -11.1°
Reaches altitude 10° 05:19:26 10° 348° (NNW) 2,732 6.2 -10.7°
Maximum altitude 05:25:42 79° 263° (W) 1,002 4.0 -9.8°
Drops below altitude 10° 05:31:57 10° 178° (S) 2,732 6.5 -8.8°
Sets 05:34:28 0° 177° (S) 3,679 7.2 -8.4°
